Lambertville, MI

5:14 PM EDT on October 22, 2017 (GMT -0400)
Lambertville

Weather History for KDUH - November, 2012

Change the Weather History Date:

Wednesday, November 21, 2012

  Actual Average (KTOL) Record (KTOL)
Temperature  
Mean Temperature 46 °F -  
Max Temperature 61 °F 43 °F 69 °F (1934)
Min Temperature 32 °F 29 °F 9 °F (1880)
Degree Days  
Heating Degree Days 18    
Moisture  
Dew Point 36 °F    
Average Humidity 78    
Maximum Humidity 94    
Minimum Humidity 43    
Precipitation  
Precipitation 0.00 in - - ()
Sea Level Pressure  
Sea Level Pressure 30.19 in    
Wind  
Wind Speed 1 mph (WSW)    
Max Wind Speed 8 mph    
Max Gust Speed -    
Visibility 5 miles    
Events Fog    
Averages and records for this station are not official NWS values.
T = Trace of Precipitation, MM = Missing Value Source: NWS Daily Summary

Daily Weather History Graph

Daily Weather History Graph

Search for Another Location

Airport or City:

Trip Planner

Search our weather history database for the weather conditions in past years. The results will help you decide how hot, cold, wet, or windy it might be!

Date:

Astronomy

Nov. 21, 2012 Rise Set
Actual Time 7:31 AM EST 5:09 PM EST
Civil Twilight 7:01 AM EST 5:39 PM EST
Nautical Twilight 6:27 AM EST 6:13 PM EST
Astronomical Twilight 5:54 AM EST 6:46 PM EST
Moon 1:30 PM EST (11/21) 12:44 AM EST (11/21)
Length of Visible Light 10h 38m
Length of Day
9h 37m
First Quarter, 61% of the Moon is Illuminated
Nov 21
First Quarter
Nov 28
Full
Dec 6
Last Quarter
Dec 13
New
Dec 20
First Quarter

Hourly Weather History & Observations

Time (EST) Temp. Windchill Dew Point Humidity Pressure Visibility Wind Dir Wind Speed Gust Speed Precip Events Conditions
12:15 AM 40.5 °F - 36.7 °F 86% 30.15 in 5.0 mi Calm Calm - N/A   Overcast
12:35 AM 40.8 °F - 37.2 °F 87% 30.15 in 5.0 mi Calm Calm - N/A   Overcast
12:55 AM 40.3 °F - 36.5 °F 86% 30.15 in 5.0 mi Calm Calm - N/A   Scattered Clouds
1:15 AM 39.4 °F - 35.8 °F 87% 30.15 in 5.0 mi Calm Calm - N/A   Clear
1:35 AM 38.1 °F - 34.7 °F 87% 30.15 in 4.0 mi Calm Calm - N/A   Clear
1:55 AM 36.7 °F - 33.6 °F 89% 30.16 in 2.0 mi Calm Calm - N/A   Clear
2:15 AM 37.0 °F - 34.2 °F 89% 30.16 in 2.5 mi Calm Calm - N/A   Clear
2:35 AM 36.0 °F - 33.4 °F 91% 30.17 in 2.0 mi Calm Calm - N/A   Clear
2:55 AM 36.1 °F - 33.4 °F 90% 30.17 in 1.8 mi Calm Calm - N/A   Mist
3:15 AM 35.6 °F - 33.1 °F 91% 30.18 in 2.0 mi Calm Calm - N/A   Clear
3:35 AM 34.3 °F - 32.0 °F 91% 30.18 in 2.5 mi Calm Calm - N/A   Clear
3:55 AM 34.3 °F - 32.0 °F 91% 30.18 in 1.8 mi Calm Calm - N/A   Mist
4:15 AM 33.1 °F - 31.3 °F 93% 30.18 in 1.0 mi Calm Calm - N/A   Mist
4:35 AM 34.2 °F - 32.0 °F 92% 30.18 in 0.5 mi Calm Calm - N/A Fog Fog
4:55 AM 33.4 °F - 31.6 °F 93% 30.18 in 3.0 mi Calm Calm - N/A   Mist
5:15 AM 32.7 °F - 30.9 °F 93% 30.19 in 3.0 mi Calm Calm - N/A   Clear
5:35 AM 32.4 °F - 30.2 °F 92% 30.20 in 1.8 mi Calm Calm - N/A   Mist
5:55 AM 33.1 °F - 31.1 °F 92% 30.20 in 2.5 mi Calm Calm - N/A   Clear
6:15 AM 33.8 °F - 31.6 °F 92% 30.20 in 1.8 mi Calm Calm - N/A   Mostly Cloudy
6:35 AM 33.6 °F - 31.8 °F 93% 30.20 in 2.0 mi Calm Calm - N/A   Overcast
6:55 AM 34.5 °F - 32.2 °F 91% 30.19 in 2.0 mi Calm Calm - N/A   Overcast
7:15 AM 34.7 °F - 32.4 °F 91% 30.20 in 2.0 mi Calm Calm - N/A   Mist
7:35 AM 33.6 °F - 32.0 °F 94% 30.20 in 1.5 mi Calm Calm - N/A   Mist
7:55 AM 32.9 °F - 31.5 °F 94% 30.23 in 1.5 mi Calm Calm - N/A   Mist
8:15 AM 33.8 °F - 32.0 °F 93% 30.23 in 1.2 mi Calm Calm - N/A   Mist
8:35 AM 35.4 °F - 33.3 °F 92% 30.22 in 1.8 mi Calm Calm - N/A   Mist
8:55 AM 37.6 °F - 35.4 °F 92% 30.23 in 2.0 mi Calm Calm - N/A   Clear
9:15 AM 41.2 °F - 38.1 °F 89% 30.23 in 3.0 mi Calm Calm - N/A   Clear
9:35 AM 44.6 °F - 39.2 °F 81% 30.23 in 4.0 mi Calm Calm - N/A   Haze
9:55 AM 45.5 °F - 39.0 °F 78% 30.24 in 4.0 mi Calm Calm - N/A   Haze
10:15 AM 46.4 °F - 39.7 °F 78% 30.24 in 5.0 mi Calm Calm - N/A   Haze
10:35 AM 48.7 °F - 40.3 °F 73% 30.24 in 5.0 mi Calm Calm - N/A   Haze
10:55 AM 50.4 °F - 41.0 °F 70% 30.24 in 5.0 mi Calm Calm - N/A   Haze
11:15 AM 53.6 °F - 41.0 °F 62% 30.24 in 5.0 mi Calm Calm - N/A   Haze
11:35 AM 55.6 °F - 40.3 °F 56% 30.23 in 7.0 mi Calm Calm - N/A   Clear
11:55 AM 56.7 °F - 39.7 °F 53% 30.23 in 7.0 mi Calm Calm - N/A   Clear
12:15 PM 57.9 °F - 38.7 °F 49% 30.23 in 7.0 mi West 4.6 mph - N/A   Clear
12:35 PM 58.5 °F - 38.7 °F 48% 30.22 in 10.0 mi West 3.5 mph - N/A   Clear
12:55 PM 58.8 °F - 39.0 °F 48% 30.21 in 10.0 mi West 3.5 mph - N/A   Clear
1:15 PM 59.5 °F - 38.1 °F 45% 30.21 in 10.0 mi WSW 3.5 mph - N/A   Clear
1:35 PM 59.5 °F - 39.0 °F 47% 30.20 in 7.0 mi SW 5.8 mph - N/A   Clear
1:55 PM 59.7 °F - 39.0 °F 46% 30.19 in 10.0 mi WSW 5.8 mph - N/A   Clear
2:15 PM 61.0 °F - 38.8 °F 44% 30.19 in 10.0 mi West 4.6 mph - N/A   Clear
2:35 PM 60.8 °F - 38.1 °F 43% 30.19 in 10.0 mi West 5.8 mph - N/A   Clear
2:55 PM 59.9 °F - 38.5 °F 45% 30.19 in 10.0 mi West 6.9 mph - N/A   Clear
3:15 PM 59.7 °F - 39.0 °F 46% 30.19 in 10.0 mi West 6.9 mph - N/A   Clear
3:35 PM 59.0 °F - 39.7 °F 49% 30.19 in 10.0 mi West 8.1 mph - N/A   Clear
3:55 PM 58.6 °F - 39.7 °F 49% 30.19 in 10.0 mi West 5.8 mph - N/A   Clear
4:15 PM 58.1 °F - 39.7 °F 50% 30.18 in 7.0 mi WSW 4.6 mph - N/A   Clear
4:35 PM 57.2 °F - 40.1 °F 53% 30.19 in 7.0 mi WSW 3.5 mph - N/A   Clear
4:55 PM 55.8 °F - 40.1 °F 56% 30.18 in 7.0 mi Calm Calm - N/A   Clear
5:15 PM 52.2 °F - 40.1 °F 64% 30.18 in 7.0 mi Calm Calm - N/A   Clear
5:35 PM 48.0 °F - 38.7 °F 70% 30.18 in 7.0 mi Calm Calm - N/A   Clear
5:55 PM 46.8 °F - 38.8 °F 74% 30.18 in 7.0 mi Calm Calm - N/A   Clear
6:15 PM 45.3 °F - 38.1 °F 76% 30.18 in 7.0 mi Calm Calm - N/A   Clear
6:35 PM 44.1 °F - 38.5 °F 81% 30.19 in 7.0 mi Calm Calm - N/A   Clear
6:55 PM 43.0 °F - 37.9 °F 82% 30.19 in 5.0 mi Calm Calm - N/A   Haze
7:15 PM 42.6 °F - 38.7 °F 86% 30.19 in 5.0 mi Calm Calm - N/A   Clear
7:35 PM 41.0 °F - 36.5 °F 84% 30.19 in 5.0 mi Calm Calm - N/A   Clear
7:55 PM 41.9 °F - 37.6 °F 85% 30.19 in 7.0 mi Calm Calm - N/A   Clear
8:15 PM 40.6 °F - 37.2 °F 88% 30.18 in 5.0 mi Calm Calm - N/A   Clear
8:35 PM 41.0 °F - 37.4 °F 87% 30.18 in 5.0 mi Calm Calm - N/A   Clear
8:55 PM 39.2 °F - 35.6 °F 87% 30.18 in 4.0 mi Calm Calm - N/A   Clear
9:15 PM 39.2 °F - 36.3 °F 89% 30.18 in 4.0 mi Calm Calm - N/A   Clear
9:35 PM 39.4 °F 37.2 °F 36.5 °F 89% 30.18 in 4.0 mi SSW 3.5 mph - N/A   Clear
9:55 PM 38.5 °F - 35.6 °F 89% 30.19 in 4.0 mi Calm Calm - N/A   Clear
10:15 PM 38.7 °F - 36.0 °F 90% 30.19 in 3.0 mi Calm Calm - N/A   Clear
10:35 PM 37.8 °F - 34.9 °F 89% 30.18 in 3.0 mi Calm Calm - N/A   Clear
10:55 PM 37.6 °F - 34.9 °F 90% 30.18 in 3.0 mi Calm Calm - N/A   Clear
11:15 PM 37.0 °F - 34.5 °F 91% 30.18 in 2.0 mi Calm Calm - N/A   Clear
11:35 PM 36.7 °F - 34.2 °F 91% 30.18 in 2.0 mi Calm Calm - N/A   Clear
11:55 PM 36.7 °F - 34.3 °F 91% 30.18 in 2.5 mi Calm Calm - N/A   Clear